Location: Gadern
(49.5873°N, 8.8138°E)
Time: 16:43:22
(UTC+00:00)

Meteor 1-11 Rocket - Pass Details

Date: 19 May 2025
Orbit: 829 x 915 km, 81.2° (Epoch: 17 June)

Event Time Altitude Azimuth Distance (km) Brightness Sun altitude
Rises 20:59:47 0° 352° (N) 3,389 8.1 -13.7°
Reaches altitude 10° 21:02:22 10° 0° (N) 2,449 7.0 -13.9°
Maximum altitude 21:07:31 39° 69° (ENE) 1,231 4.5 -14.4°
Enters shadow 21:10:53 20° 127° (SE) 1,848 4.9 -14.7°
